Location: Sweet Grass
(48.9965°N, 111.9649°W)
Time: 07:04:13
(UTC+00:00)

N. Korean satellite - Pass Details

Date: 02 December 2022
Orbit: 407 x 442 km, 97.3° (Epoch: 04 February)

Event Time Altitude Azimuth Distance (km) Brightness Sun altitude
Rises 14:07:40 0° 356° (N) 2,527 9.9 -8.6°
Reaches altitude 10° 14:10:27 10° 332° (NNW) 1,640 8.8 -8.2°
Maximum altitude 14:12:24 14° 298° (WNW) 1,381 8.2 -7.9°
Drops below altitude 10° 14:14:22 10° 264° (W) 1,623 8.7 -7.6°
Sets 14:17:06 0° 239° (WSW) 2,483 9.8 -7.2°
